PROBA-1 1 26958U 01049B 25355.59518690 .00001625 00000+0 11086-3 0 9999 2 26958 97.9589 353.0490 0056427 4.9339 355.2432 15.06502578316873 CUTE-1 (CO-55) 1 27844U 03031E 25355.51243991 .00000289 00000+0 14448-3 0 9998 2 27844 98.6762 1.3023 0009318 348.0536 12.0420 14.24186288166381 CUBESAT XI-IV (CO-57) 1 27848U 03031J 25355.48321956 .00000242 00000+0 12552-3 0 9999 2 27848 98.6791 1.1285 0009558 6.3588 353.7710 14.23493324166098 APRIZESAT 4 1 35684U 09041D 25355.15039886 .00000676 00000+0 87937-4 0 9996 2 35684 98.1631 61.8003 0043656 177.2350 182.9113 14.83509906884968 APRIZESAT 3 1 35686U 09041F 25355.37112468 .00001004 00000+0 93453-4 0 9996 2 35686 98.1798 135.4540 0061556 294.7112 64.7708 14.95449865889791 PROBA-2 1 36037U 09059B 25355.51669850 .00000254 00000+0 69737-4 0 9998 2 36037 98.2372 176.3693 0014298 108.1283 252.1472 14.54718009855699 APRIZESAT 5 1 37792U 11044E 25355.50334319 .00000888 00000+0 12074-3 0 9996 2 37792 98.2369 278.6790 0051772 213.6541 146.1379 14.80593744772495 APRIZESAT 6 1 37793U 11044F 25355.51042733 .00000833 00000+0 12579-3 0 9994 2 37793 98.2461 257.3208 0042250 295.2793 238.1672 14.76554283770927 PROBA-V 1 39159U 13021A 25355.57718837 .00000058 00000+0 43508-4 0 9996 2 39159 98.3397 338.1482 0003131 302.7172 57.3705 14.23549866655840 APRIZESAT 7 1 39416U 13066A 25351.58791045 .00001184 00000+0 12412-3 0 9990 2 39416 97.7478 302.7623 0037879 93.0669 267.4884 14.90916766654167 APRIZESAT 8 1 39425U 13066K 25355.27553662 .00000866 00000+0 10062-3 0 9996 2 39425 97.8016 300.5233 0047079 149.6575 210.7382 14.87131912653224 BUGSAT-1 (TITA) 1 40014U 14033E 25355.58169090 .00003160 00000+0 17932-3 0 9992 2 40014 98.0559 72.9792 0030498 67.6097 292.8359 15.13381439628958 SAUDISAT 4 1 40016U 14033G 25355.36943423 .00000668 00000+0 95648-4 0 9991 2 40016 97.7304 142.9822 0043805 292.8956 66.7635 14.79184187619786 APRIZESAT 9 1 40018U 14033J 25355.36172973 .00000506 00000+0 82023-4 0 9991 2 40018 97.8798 128.2390 0067600 52.8265 307.9090 14.73899274617360 APRIZESAT 10 1 40019U 14033K 25355.35710102 .00000584 00000+0 99512-4 0 9990 2 40019 97.9413 121.5968 0080320 121.2392 239.6716 14.70610749616112 TECHDEMOSAT-1 (TDS-1) 1 40076U 14037H 25355.49471688 .00006730 00000+0 42285-3 0 9998 2 40076 98.3671 325.7390 0007813 135.2044 224.9814 15.09615865621386 TECHNOSAT 1 42829U 17042E 25355.44723339 .00002996 00000+0 22344-3 0 9997 2 42829 97.4055 155.2792 0017656 346.2453 13.8289 15.03475940459984 FLYING LAPTOP 1 42831U 17042G 25355.60791104 .00002454 00000+0 20170-3 0 9997 2 42831 97.4250 153.8240 0014454 20.0647 340.1142 14.99964041459827 HAWK-A 1 43765U 18099H 25355.13713849 .00005678 00000+0 24934-3 0 9998 2 43765 97.4200 44.7697 0036875 188.9236 171.1349 15.21710684385997 HAWK-B 1 43794U 18099AN 25355.61676804 .00006147 00000+0 28312-3 0 9998 2 43794 97.4245 45.0004 0033356 203.5350 156.4360 15.20159367386035 HAWK-C 1 43799U 18099AT 25355.61871212 .00008003 00000+0 31832-3 0 9997 2 43799 97.4173 45.3498 0043402 190.7619 169.2695 15.24660812386824 SALSAT 1 46495U 20068K 25355.51276967 .00006998 00000+0 27118-3 0 9990 2 46495 97.8784 343.2587 0009690 194.9592 165.1360 15.26459905288228 HAWK-2C 1 47502U 21006CT 25355.58657199 .00006190 00000+0 20388-3 0 9996 2 47502 97.2546 38.5052 0008862 113.1144 247.1033 15.31796968272281 HAWK-2A 1 47505U 21006CW 25355.58965138 .00005706 00000+0 18816-3 0 9999 2 47505 97.2590 39.0822 0008397 115.5519 244.6592 15.31799480272283 HAWK-2B 1 47508U 21006CZ 25355.58691734 .00006340 00000+0 20875-3 0 9993 2 47508 97.2458 37.7112 0009092 113.9695 246.2500 15.31798005272285 HAWK-3B 1 48931U 21059BE 25355.47297024 .00025507 00000+0 37378-3 0 9996 2 48931 97.6691 172.2807 0005147 262.3515 97.7154 15.55539380250108 HAWK-3C 1 48948U 21059BX 25355.47272561 .00024804 00000+0 36353-3 0 9994 2 48948 97.6852 177.6095 0005576 263.4845 96.5774 15.55538192250102 HAWK-3A 1 48957U 21059CG 25355.47256680 .00025293 00000+0 37071-3 0 9999 2 48957 97.6783 174.9736 0005186 262.5900 97.4764 15.55536122250106 HAWK-5C 1 52754U 22057Y 25355.45480460 .00013799 00000+0 30567-3 0 9992 2 52754 97.6376 139.9332 0005466 4.6410 355.4888 15.43886608198850 HAWK-5B 1 52756U 22057AA 25355.45463887 .00013813 00000+0 30599-3 0 9990 2 52756 97.6363 138.2886 0005524 0.0602 0.0645 15.43884563198854 HAWK-5A 1 52757U 22057AB 25355.45441383 .00014450 00000+0 32002-3 0 9997 2 52757 97.6371 139.1127 0005774 1.2028 358.9232 15.43879333198850 HAWK-6B 1 55324U 23011A 25355.55518123 .00004734 00000+0 21910-3 0 9999 2 55324 40.5159 306.4938 0004055 246.3432 113.6951 15.20745525160779 HAWK-6C 1 55326U 23011C 25355.55456585 .00004723 00000+0 21860-3 0 9996 2 55326 40.4846 303.5743 0003648 237.2879 122.7578 15.20743670160782 HAWK-6A 1 55327U 23011D 25355.55458891 .00004657 00000+0 21569-3 0 9991 2 55327 40.5006 305.0749 0003397 241.5545 118.4921 15.20743526160788 HAWK-7A 1 56191U 23054P 25355.22717554 .00006279 00000+0 22623-3 0 9990 2 56191 97.2922 241.8303 0009873 337.3185 22.7617 15.28867354149865 HAWK-7B 1 56193U 23054R 25355.61968763 .00002473 00000+0 90716-4 0 9996 2 56193 97.2934 240.4175 0009708 343.5537 16.5387 15.28867186149924 HAWK-7C 1 56200U 23054Y 25355.61946779 .00006835 00000+0 24600-3 0 9992 2 56200 97.2936 241.2350 0009423 339.2901 20.7956 15.28869366149921